TimeEDT,TemperatureF,Dew PointF,Humidity,Sea Level PressureIn,VisibilityMPH,Wind Direction,Wind SpeedMPH,Gust SpeedMPH,PrecipitationIn,Events,Conditions,WindDirDegrees,DateUTC
12:58 AM,68.9,67.6,96,30.07,9.0,Calm,Calm,-,N/A,,Scattered Clouds,0,2013-08-23 04:58:00
1:18 AM,69.8,68.0,94,30.09,10.0,NNW,8.1,-,N/A,,Mostly Cloudy,330,2013-08-23 05:18:00
1:58 AM,69.6,67.5,93,30.08,10.0,NNW,8.1,-,N/A,,Scattered Clouds,330,2013-08-23 05:58:00
2:58 AM,68.9,67.1,94,30.06,10.0,North,5.8,-,N/A,,Mostly Cloudy,350,2013-08-23 06:58:00
3:28 AM,68.0,66.2,94,30.07,9.0,NNW,5.8,-,N/A,,Partly Cloudy,330,2013-08-23 07:28:00
3:58 AM,67.8,66.7,96,30.06,8.0,WNW,4.6,-,N/A,,Partly Cloudy,300,2013-08-23 07:58:00
4:28 AM,66.2,64.4,94,30.06,5.0,West,3.5,-,N/A,,Mostly Cloudy,280,2013-08-23 08:28:00
4:38 AM,66.2,66.2,100,30.06,2.0,West,2.3,-,N/A,,Mostly Cloudy,280,2013-08-23 08:38:00
4:48 AM,68.0,66.2,94,30.06,2.0,WSW,3.5,-,N/A,,Mostly Cloudy,250,2013-08-23 08:48:00
4:58 AM,67.5,66.6,97,30.06,2.0,West,3.5,-,N/A,,Mostly Cloudy,280,2013-08-23 08:58:00
5:58 AM,68.0,66.9,96,30.07,2.0,NNW,10.4,-,N/A,,Overcast,340,2013-08-23 09:58:00
6:58 AM,68.4,66.6,94,30.09,2.5,North,5.8,-,N/A,,Overcast,350,2013-08-23 10:58:00
7:18 AM,68.0,66.2,94,30.09,3.0,North,6.9,-,N/A,,Overcast,360,2013-08-23 11:18:00
7:38 AM,68.0,66.2,94,30.09,4.0,North,6.9,-,N/A,,Mostly Cloudy,360,2013-08-23 11:38:00
7:58 AM,68.4,66.0,92,30.10,4.0,North,5.8,-,N/A,,Mostly Cloudy,360,2013-08-23 11:58:00
8:38 AM,68.0,66.2,94,30.12,6.0,North,8.1,-,N/A,,Mostly Cloudy,350,2013-08-23 12:38:00
8:58 AM,69.3,66.0,89,30.11,7.0,North,5.8,-,N/A,,Mostly Cloudy,350,2013-08-23 12:58:00
9:28 AM,69.8,66.2,88,30.11,10.0,North,8.1,-,N/A,,Mostly Cloudy,10,2013-08-23 13:28:00
9:58 AM,71.4,66.2,84,30.11,10.0,North,5.8,-,N/A,,Scattered Clouds,360,2013-08-23 13:58:00
10:18 AM,73.4,66.2,78,30.11,10.0,Variable,5.8,-,N/A,,Partly Cloudy,0,2013-08-23 14:18:00
10:58 AM,74.5,67.1,78,30.12,10.0,Variable,3.5,-,N/A,,Partly Cloudy,0,2013-08-23 14:58:00
11:58 AM,77.2,68.0,73,30.12,10.0,NNE,4.6,-,N/A,,Scattered Clouds,20,2013-08-23 15:58:00
12:58 PM,78.4,68.5,72,30.12,10.0,Variable,2.3,-,N/A,,Scattered Clouds,0,2013-08-23 16:58:00
1:58 PM,81.3,66.9,61,30.11,10.0,North,9.2,-,N/A,,Scattered Clouds,10,2013-08-23 17:58:00
2:58 PM,82.9,65.7,56,30.09,10.0,NNW,5.8,-,N/A,,Clear,340,2013-08-23 18:58:00
3:58 PM,81.7,62.4,52,30.09,10.0,NNW,8.1,-,N/A,,Partly Cloudy,340,2013-08-23 19:58:00
4:58 PM,81.3,63.1,54,30.07,10.0,NNE,4.6,-,N/A,,Partly Cloudy,30,2013-08-23 20:58:00
5:58 PM,81.7,60.3,48,30.07,10.0,NNE,9.2,-,N/A,,Clear,20,2013-08-23 21:58:00
6:58 PM,81.7,59.4,47,30.07,10.0,North,8.1,-,N/A,,Clear,360,2013-08-23 22:58:00
7:58 PM,78.8,62.8,58,30.10,10.0,NNE,8.1,-,N/A,,Clear,20,2013-08-23 23:58:00
8:58 PM,74.8,63.0,66,30.13,10.0,North,5.8,-,N/A,,Clear,10,2013-08-24 00:58:00
9:58 PM,71.6,62.6,73,30.15,10.0,NNE,9.2,-,N/A,,Clear,20,2013-08-24 01:58:00
10:58 PM,68.9,60.3,74,30.17,10.0,NNE,6.9,-,N/A,,Clear,30,2013-08-24 02:58:00
11:58 PM,67.8,59.0,73,30.18,10.0,North,3.5,-,N/A,,Clear,360,2013-08-24 03:58:00